Tracking 18852 objects as of 23-Nov-2017
HD Live streaming from Space Station
objects crossing your sky now

FENGYUN 1C DEB

Track FENGYUN 1C DEB now!
10-day predictions


NORAD ID: 32194
Int'l Code: 1999-025CUQ
Perigee: 679.3 km
Apogee: 789.8 km
Inclination: 99.1 °
Period: 99.3 minutes
Semi major axis: 7105 km
RCS: 0.0086 m2 (small)
Launch date: May 10, 1999
Source: People's Republic of China (PRC)
Launch site: Taiyaun Space Center, China (TSC)

Note: This is SATELLITE DEBRIS
aabbcc
Your satellite tracking list
Your tracking list is empty




NASA's NSSDC Master Catalog

Two Line Element Set (TLE):
1 32194U 99025CUQ 17325.55741422 +.00001341 +00000-0 +35070-3 0  9999
2 32194 099.0872 245.4703 0077733 204.0094 155.7466 14.49469804291170
Source of the keplerian elements: AFSPC